Notices

What's New in latest Release from April 7th, 2021:

- Updated Glossary, including Speed of Maximum Gust, and Total Hourly Precipitation

- Updated national and regional climate services offices contacts and prices information

- Addition of station inventory lists for 1981-2010, 1971-2000, and 1961-1990 Normals.

If you haven't already, please take our survey and provide feedback about our website: https://eccc.sondage-survey.ca/f/LanguageSelection.aspx?s=442ca660-fcf1-47c0-95a9-59707d6fd709

Hourly Data Report for October 16, 2017

VICTORIA UNIVERSITY CS
BRITISH COLUMBIA

48°27'25.200" N
123°18'16.600" W
60.10 m
1018598
71783
WYJ

Download Data

Hourly Data (October 2017)
Hourly Data Report for October 16, 2017
TIME
LST
Temp Definition
°C
Dew Point Definition
°C
Rel Hum Definition
%
Precip. Amount Definition
mm

Wind Dir Definition
10's deg

Wind Spd Definition
km/h
Visibility Definition
km
Stn Press Definition
kPa
Hmdx Definition


Wind Chill Definition


Weather Definition


00:00 9.5 8.2 92 0.0 0 1   101.56     LegendNANA
01:00 9.9 8.6 92 0.0 26 5   101.58     LegendNANA
02:00 10.5 8.8 90 0.0 23 7   101.57     LegendNANA
03:00 10.6 9.0 89 0.0 24 9   101.54     LegendNANA
04:00 10.4 8.9 91 0.0 23 7   101.50     LegendNANA
05:00 9.8 8.7 93 0.0 23 7   101.50     LegendNANA
06:00 9.6 8.5 93 0.0 19 5   101.49     LegendNANA
07:00 9.8 8.6 92 0.0 19 3   101.48     LegendNANA
08:00 10.9 9.0 88 0.0 15 2   101.49     LegendNANA
09:00 11.2 8.8 86 0.0 14 4   101.48     LegendNANA
10:00 11.3 8.5 83 0.0 15 6   101.45     LegendNANA
11:00 10.3 8.6 89 0.0 13 4   101.43     LegendNANA
12:00 10.4 8.5 88 0.0 12 3   101.39     LegendNANA
13:00 9.5 8.5 94 0.2 10 5   101.41     LegendNANA
14:00 9.7 8.9 95 0.0 13 2   101.34     LegendNANA
15:00 10.0 9.0 94 0.0 15 2   101.36     LegendNANA
16:00 10.1 9.2 94 0.0 12 1   101.30     LegendNANA
17:00 10.0 9.1 94 0.0 13 2   101.21     LegendNANA
18:00 10.2 9.2 93 0.0 21 2   101.11     LegendNANA
19:00 10.6 9.2 91 0.0 22 3   101.05     LegendNANA
20:00 10.6 9.5 93 0.0   0   100.98     LegendNANA
21:00 10.4 9.5 94 0.0   0   100.91     LegendNANA
22:00 10.4 9.6 95 0.4 14 3   100.79     LegendNANA
23:00 10.6 9.4 93 0.0 12 2   100.72     LegendNANA

Notes on Data Quality.

Legend

  • E = Estimated
  • M = Missing
  • NA = Not Available*
  • [empty] = Indicates an unobserved value
Date modified: